KPF54 LFSB-HEAL

Flight info

Callsign KPF54
Flight time 3h 3m
Altitude 39000
Route ELBEG Y715 AMRUP N491 TRA DCT DEGES DCT GAMSA DCT MADEB N606 GIRIS/N0391F190 N606 NAXAV L12 ALESE/N0447F280 DCT VIC/N0441F270 DCT KOPER DCT LATAN UM872 PLH UL604 SALUN
Aircraft CL60/M-SBDE1E2E3FGHIJ1J4J5J7M3RWXYZ/LB1V1D1

Departure

Time 2026-05-07 13:53
Airport EuroAirport Basel–Mulhouse–Freiburg (LFSB)

Arrival

Time 2026-05-07 16:56
Airport El Alamein International Airport (HEAL)
Time Latitude Longitude Altitude Speed Heading
2026-05-07 13:12 47.60170 7.52564 884 ft 0 kts 65°
2026-05-07 13:49 47.60193 7.52569 884 ft 7 kts 298°
2026-05-07 13:49 47.60183 7.52488 884 ft 8 kts 279°
2026-05-07 13:49 47.60190 7.52388 884 ft 10 kts 295°
2026-05-07 13:50 47.60260 7.52331 884 ft 12 kts 336°
2026-05-07 13:50 47.60349 7.52269 883 ft 15 kts 335°
2026-05-07 13:50 47.60491 7.52169 882 ft 18 kts 335°
2026-05-07 13:50 47.60541 7.52134 881 ft 6 kts 335°
2026-05-07 13:51 47.60578 7.52084 881 ft 8 kts 280°
2026-05-07 13:51 47.60560 7.52012 881 ft 5 kts 246°
2026-05-07 13:51 47.60545 7.51962 881 ft 5 kts 245°
2026-05-07 13:51 47.60524 7.51901 881 ft 6 kts 244°
2026-05-07 13:52 47.60488 7.51877 881 ft 1 kts 157°
2026-05-07 13:52 47.60453 7.51902 882 ft 29 kts 155°
2026-05-07 13:52 47.59965 7.52239 886 ft 122 kts 153°
2026-05-07 13:52 47.58983 7.52914 1080 ft 174 kts 158°
2026-05-07 13:53 47.57843 7.53693 1770 ft 192 kts 158°
2026-05-07 13:53 47.56576 7.54445 2610 ft 203 kts 168°
2026-05-07 13:53 47.55267 7.54288 3276 ft 182 kts 208°
2026-05-07 13:53 47.54475 7.52836 3635 ft 198 kts 257°
2026-05-07 13:54 47.54485 7.50764 4399 ft 215 kts 289°
2026-05-07 13:54 47.55317 7.48876 5191 ft 233 kts 324°
2026-05-07 13:54 47.56861 7.48018 5992 ft 242 kts 352°
2026-05-07 13:54 47.58513 7.47687 6743 ft 244 kts 352°
2026-05-07 13:55 47.60201 7.47342 7498 ft 244 kts 351°
2026-05-07 13:55 47.61898 7.46992 8254 ft 248 kts 352°
2026-05-07 13:55 47.63612 7.47085 8996 ft 254 kts 13°
2026-05-07 13:55 47.65217 7.48203 9753 ft 262 kts 39°
2026-05-07 13:56 47.66377 7.50332 10522 ft 275 kts 67°
2026-05-07 13:56 47.66877 7.53138 11305 ft 289 kts 81°
2026-05-07 13:56 47.67247 7.56177 11801 ft 315 kts 80°
2026-05-07 13:56 47.67670 7.59546 12124 ft 344 kts 80°
2026-05-07 13:57 47.68124 7.63138 12606 ft 360 kts 80°
2026-05-07 13:57 47.68584 7.66777 13334 ft 367 kts 80°
2026-05-07 13:57 47.69064 7.70557 14100 ft 375 kts 79°
2026-05-07 13:57 47.69559 7.74378 14948 ft 380 kts 77°
2026-05-07 13:58 47.70365 7.78110 15821 ft 383 kts 69°
2026-05-07 13:58 47.71309 7.81837 16604 ft 388 kts 69°
2026-05-07 13:58 47.72265 7.85639 17369 ft 393 kts 69°
2026-05-07 13:58 47.73219 7.89440 18120 ft 396 kts 69°
2026-05-07 13:59 47.74184 7.93288 18888 ft 399 kts 69°
2026-05-07 13:59 47.75154 7.97166 19643 ft 401 kts 69°
2026-05-07 13:59 47.76121 8.01042 20399 ft 402 kts 69°
2026-05-07 13:59 47.76961 8.04975 21154 ft 403 kts 78°
2026-05-07 14:00 47.77153 8.09162 21642 ft 410 kts 95°
2026-05-07 14:00 47.76511 8.13364 21997 ft 419 kts 110°
2026-05-07 14:00 47.75483 8.17420 22438 ft 425 kts 111°
2026-05-07 14:00 47.74439 8.21545 22942 ft 430 kts 111°
2026-05-07 14:01 47.73377 8.25743 23454 ft 434 kts 111°
2026-05-07 14:01 47.72313 8.29953 23947 ft 438 kts 111°
2026-05-07 14:01 47.71238 8.34206 24448 ft 441 kts 111°
2026-05-07 14:01 47.70155 8.38490 24960 ft 443 kts 110°
2026-05-07 14:02 47.69053 8.42801 25472 ft 445 kts 112°
2026-05-07 14:02 47.67755 8.46993 25927 ft 447 kts 117°
2026-05-07 14:02 47.66277 8.51085 26347 ft 450 kts 118°
2026-05-07 14:02 47.64798 8.55153 26750 ft 452 kts 118°
2026-05-07 14:03 47.63300 8.59279 27123 ft 455 kts 118°
2026-05-07 14:03 47.61774 8.63485 27494 ft 458 kts 118°
2026-05-07 14:03 47.60266 8.67637 27847 ft 460 kts 118°
2026-05-07 14:03 47.58736 8.71850 28181 ft 462 kts 118°
2026-05-07 14:04 47.57202 8.76070 28509 ft 464 kts 118°
2026-05-07 14:04 47.55666 8.80294 28830 ft 466 kts 118°
2026-05-07 14:04 47.54106 8.84578 29158 ft 468 kts 118°
2026-05-07 14:04 47.52558 8.88824 29475 ft 470 kts 118°
2026-05-07 14:05 47.51009 8.93072 29800 ft 473 kts 118°
2026-05-07 14:05 47.49427 8.97405 30131 ft 474 kts 118°
2026-05-07 14:05 47.47855 9.01703 30446 ft 476 kts 118°
2026-05-07 14:05 47.46276 9.06016 30715 ft 478 kts 118°
2026-05-07 14:06 47.44677 9.10376 31018 ft 478 kts 118°
2026-05-07 14:06 47.43095 9.14689 31312 ft 478 kts 118°
2026-05-07 14:06 47.41773 9.19258 31597 ft 477 kts 106°
2026-05-07 14:06 47.41175 9.24034 31809 ft 477 kts 94°
2026-05-07 14:07 47.41050 9.28952 32009 ft 478 kts 90°
2026-05-07 14:07 47.41008 9.33873 32207 ft 479 kts 90°
2026-05-07 14:07 47.40959 9.38776 32383 ft 480 kts 90°
2026-05-07 14:07 47.40909 9.43727 32572 ft 481 kts 90°
2026-05-07 14:08 47.40857 9.48700 32766 ft 481 kts 90°
2026-05-07 14:08 47.40804 9.53620 32955 ft 482 kts 90°
2026-05-07 14:08 47.40749 9.58593 33121 ft 483 kts 90°
2026-05-07 14:08 47.40675 9.63534 33305 ft 483 kts 92°
2026-05-07 14:09 47.40355 9.68507 33470 ft 484 kts 99°
2026-05-07 14:09 47.39758 9.73379 33649 ft 483 kts 102°
2026-05-07 14:09 47.39097 9.78257 33810 ft 484 kts 102°
2026-05-07 14:09 47.38440 9.83140 33958 ft 485 kts 102°
2026-05-07 14:10 47.37784 9.88018 34113 ft 485 kts 102°
2026-05-07 14:10 47.37123 9.92931 34264 ft 486 kts 102°
2026-05-07 14:10 47.36245 9.99454 34484 ft 487 kts 102°
2026-05-07 14:10 47.35802 10.02749 34615 ft 486 kts 102°
2026-05-07 14:11 47.35135 10.07691 34801 ft 486 kts 102°
2026-05-07 14:11 47.34481 10.12536 35002 ft 486 kts 102°
2026-05-07 14:11 47.33820 10.17426 35190 ft 486 kts 102°
2026-05-07 14:11 47.33156 10.22324 35367 ft 486 kts 102°
2026-05-07 14:12 47.32494 10.27205 35552 ft 485 kts 102°
2026-05-07 14:12 47.31829 10.32073 35706 ft 486 kts 103°
2026-05-07 14:12 47.31153 10.36973 35878 ft 486 kts 103°
2026-05-07 14:12 47.30313 10.41771 36051 ft 484 kts 109°
2026-05-07 14:13 47.29105 10.46407 36221 ft 481 kts 116°
2026-05-07 14:13 47.27554 10.50773 36367 ft 479 kts 123°
2026-05-07 14:13 47.25684 10.54828 36506 ft 477 kts 130°
2026-05-07 14:13 47.23531 10.58522 36636 ft 474 kts 137°
2026-05-07 14:14 47.21135 10.61812 36753 ft 472 kts 143°
2026-05-07 14:14 47.18500 10.64716 36871 ft 469 kts 149°
2026-05-07 14:14 47.15703 10.67037 37003 ft 464 kts 159°
2026-05-07 14:15 47.09612 10.70409 37047 ft 465 kts 164°
2026-05-07 14:15 47.03516 10.73665 37043 ft 464 kts 164°
2026-05-07 14:16 46.97467 10.76995 37036 ft 462 kts 163°
2026-05-07 14:16 46.91444 10.80350 37032 ft 461 kts 163°
2026-05-07 14:17 46.85433 10.83701 37015 ft 461 kts 163°
2026-05-07 14:17 46.79459 10.87351 37005 ft 465 kts 156°
2026-05-07 14:18 46.74078 10.92853 36984 ft 474 kts 141°
2026-05-07 14:18 46.69318 10.99559 37004 ft 476 kts 140°
2026-05-07 14:19 46.64558 11.06294 36996 ft 477 kts 140°
2026-05-07 14:19 46.59781 11.13052 37019 ft 477 kts 140°
2026-05-07 14:20 46.55028 11.19771 37006 ft 477 kts 140°
2026-05-07 14:20 46.50239 11.26490 36950 ft 475 kts 142°
2026-05-07 14:21 46.44895 11.31979 36971 ft 465 kts 156°
2026-05-07 14:21 46.38958 11.35426 36986 ft 457 kts 168°
2026-05-07 14:22 46.31770 11.38492 37013 ft 458 kts 168°
2026-05-07 14:22 46.26675 11.40669 37011 ft 458 kts 168°
2026-05-07 14:23 46.20552 11.43295 36997 ft 458 kts 168°
2026-05-07 14:23 46.14408 11.45929 36974 ft 458 kts 168°
2026-05-07 14:24 46.08269 11.48558 36959 ft 458 kts 168°
2026-05-07 14:24 46.02167 11.51167 36950 ft 458 kts 168°
2026-05-07 14:25 45.96026 11.53789 36971 ft 457 kts 168°
2026-05-07 14:25 45.89955 11.56378 36952 ft 457 kts 169°
2026-05-07 14:26 45.83984 11.58917 36980 ft 459 kts 168°
2026-05-07 14:26 45.77784 11.61550 36964 ft 458 kts 168°
2026-05-07 14:27 45.71666 11.64143 36955 ft 457 kts 169°
2026-05-07 14:27 45.65555 11.66591 36948 ft 451 kts 174°
2026-05-07 14:28 45.59389 11.67304 36952 ft 440 kts 188°
2026-05-07 14:28 45.53235 11.66846 36959 ft 439 kts 189°
2026-05-07 14:29 45.47136 11.66389 36948 ft 439 kts 189°
2026-05-07 14:29 45.40992 11.65933 36941 ft 439 kts 189°
2026-05-07 14:30 45.34900 11.65484 36951 ft 438 kts 189°
2026-05-07 14:30 45.28801 11.65038 36949 ft 437 kts 189°
2026-05-07 14:31 45.22644 11.65315 36937 ft 445 kts 178°
2026-05-07 14:31 45.16608 11.67464 36926 ft 454 kts 166°
2026-05-07 14:32 45.10870 11.71624 36926 ft 468 kts 152°
2026-05-07 14:32 45.05890 11.77723 36917 ft 477 kts 141°
2026-05-07 14:33 45.01177 11.84426 36930 ft 477 kts 141°
2026-05-07 14:33 44.96483 11.91091 36928 ft 478 kts 141°
2026-05-07 14:34 44.91801 11.97733 36932 ft 477 kts 141°
2026-05-07 14:34 44.87168 12.04296 36930 ft 477 kts 141°
2026-05-07 14:35 44.82468 12.10944 36934 ft 477 kts 141°
2026-05-07 14:35 44.77758 12.17593 36937 ft 477 kts 141°
2026-05-07 14:36 44.73085 12.24178 36938 ft 478 kts 141°
2026-05-07 14:36 44.68362 12.30819 36938 ft 477 kts 141°
2026-05-07 14:37 44.63654 12.37425 36938 ft 478 kts 141°
2026-05-07 14:37 44.56585 12.47315 36943 ft 479 kts 141°
2026-05-07 14:38 44.51832 12.53945 36946 ft 478 kts 141°
2026-05-07 14:38 44.47108 12.60520 36950 ft 479 kts 141°
2026-05-07 14:39 44.42403 12.67053 36951 ft 478 kts 142°
2026-05-07 14:39 44.37646 12.73643 36959 ft 479 kts 142°
2026-05-07 14:40 44.32926 12.80166 36946 ft 478 kts 142°
2026-05-07 14:40 44.28194 12.86690 36951 ft 479 kts 142°
2026-05-07 14:41 44.23449 12.93216 36954 ft 479 kts 142°
2026-05-07 14:41 44.18667 12.99779 36970 ft 479 kts 142°
2026-05-07 14:42 44.13916 13.06282 36967 ft 479 kts 142°
2026-05-07 14:42 44.09168 13.12767 36983 ft 478 kts 142°
2026-05-07 14:43 44.04403 13.19258 36972 ft 479 kts 142°
2026-05-07 14:43 43.99626 13.25750 36989 ft 480 kts 142°
2026-05-07 14:44 43.94846 13.32231 36991 ft 480 kts 142°
2026-05-07 14:44 43.90044 13.38726 36977 ft 480 kts 142°
2026-05-07 14:45 43.85256 13.45190 36978 ft 480 kts 142°
2026-05-07 14:45 43.80465 13.51639 36978 ft 480 kts 142°
2026-05-07 14:46 43.75662 13.58090 36979 ft 480 kts 142°
2026-05-07 14:46 43.70860 13.64525 36982 ft 480 kts 142°
2026-05-07 14:47 43.66056 13.70946 36983 ft 480 kts 143°
2026-05-07 14:47 43.61248 13.77358 36979 ft 481 kts 143°
2026-05-07 14:48 43.56417 13.83785 36975 ft 481 kts 143°
2026-05-07 14:48 43.51598 13.90181 36977 ft 481 kts 143°
2026-05-07 14:49 43.46769 13.96575 36980 ft 482 kts 143°
2026-05-07 14:49 43.41940 14.02955 36982 ft 483 kts 143°
2026-05-07 14:50 43.37072 14.09370 36983 ft 483 kts 143°
2026-05-07 14:50 43.32192 14.15787 36982 ft 483 kts 143°
2026-05-07 14:51 43.27354 14.22133 36985 ft 484 kts 143°
2026-05-07 14:51 43.22478 14.28515 36984 ft 484 kts 142°
2026-05-07 14:52 43.17569 14.34926 36980 ft 484 kts 143°
2026-05-07 14:52 43.12695 14.41276 36979 ft 484 kts 143°
2026-05-07 14:53 43.07824 14.47607 36983 ft 484 kts 143°
2026-05-07 14:53 43.02937 14.53943 36982 ft 484 kts 143°
2026-05-07 14:54 42.98036 14.60284 36976 ft 485 kts 142°
2026-05-07 14:54 42.93113 14.66636 36981 ft 485 kts 143°
2026-05-07 14:55 42.88221 14.72936 36973 ft 485 kts 144°
2026-05-07 14:55 42.83244 14.79329 36975 ft 486 kts 144°
2026-05-07 14:56 42.78325 14.85633 36973 ft 487 kts 144°
2026-05-07 14:56 42.73376 14.91962 36968 ft 488 kts 144°
2026-05-07 14:57 42.68397 14.98313 36968 ft 489 kts 144°
2026-05-07 14:57 42.63411 15.04658 36968 ft 491 kts 144°
2026-05-07 14:58 42.58421 15.10994 36972 ft 493 kts 144°
2026-05-07 14:58 42.53377 15.17382 36968 ft 496 kts 144°
2026-05-07 14:59 42.48298 15.23802 36966 ft 497 kts 144°
2026-05-07 14:59 42.43219 15.30206 36972 ft 499 kts 144°
2026-05-07 15:00 42.38124 15.36616 36974 ft 501 kts 144°
2026-05-07 15:00 42.33024 15.43018 36970 ft 502 kts 144°
2026-05-07 15:01 42.27871 15.49468 36976 ft 504 kts 144°
2026-05-07 15:01 42.22718 15.55905 36974 ft 506 kts 145°
2026-05-07 15:02 42.17502 15.62406 36973 ft 507 kts 145°
2026-05-07 15:02 42.12317 15.68847 37148 ft 509 kts 146°
2026-05-07 15:03 42.09708 15.72086 37045 ft 508 kts 146°
2026-05-07 15:03 42.07111 15.75308 37001 ft 507 kts 146°
2026-05-07 15:03 42.01890 15.81770 36987 ft 510 kts 146°
2026-05-07 15:04 41.96637 15.88254 36994 ft 513 kts 147°
2026-05-07 15:04 41.91387 15.94721 36995 ft 514 kts 146°
2026-05-07 15:05 41.86090 16.01225 36998 ft 515 kts 147°
2026-05-07 15:05 41.80796 16.07719 37005 ft 517 kts 146°
2026-05-07 15:06 41.75475 16.14227 37005 ft 518 kts 148°
2026-05-07 15:06 41.70120 16.20764 36988 ft 517 kts 147°
2026-05-07 15:07 41.64827 16.27210 36984 ft 517 kts 147°
2026-05-07 15:07 41.59514 16.33663 36973 ft 517 kts 148°
2026-05-07 15:08 41.54171 16.40135 36974 ft 518 kts 147°
2026-05-07 15:08 41.48843 16.46576 36978 ft 520 kts 147°
2026-05-07 15:09 41.43472 16.53052 36979 ft 521 kts 147°
2026-05-07 15:09 41.38083 16.59538 36976 ft 521 kts 147°
2026-05-07 15:10 41.32680 16.66021 36980 ft 523 kts 148°
2026-05-07 15:10 41.27248 16.72527 36988 ft 523 kts 148°
2026-05-07 15:11 41.21806 16.79029 36984 ft 524 kts 148°
2026-05-07 15:11 41.16365 16.85515 37002 ft 524 kts 149°
2026-05-07 15:12 41.10929 16.91977 37000 ft 527 kts 149°
2026-05-07 15:12 41.05431 16.98498 36993 ft 529 kts 148°
2026-05-07 15:13 40.99919 17.05022 37001 ft 531 kts 149°
2026-05-07 15:13 40.94366 17.11580 37005 ft 532 kts 148°
2026-05-07 15:14 40.88855 17.18075 37004 ft 530 kts 148°
2026-05-07 15:14 40.83347 17.24553 37003 ft 529 kts 148°
2026-05-07 15:15 40.77822 17.31033 37018 ft 529 kts 148°
2026-05-07 15:15 40.72304 17.37487 37017 ft 530 kts 148°
2026-05-07 15:16 40.66741 17.43981 37021 ft 528 kts 148°
2026-05-07 15:16 40.61241 17.50387 37022 ft 527 kts 148°
2026-05-07 15:17 40.56263 17.56186 37015 ft 526 kts 148°
2026-05-07 15:17 40.50786 17.62534 37040 ft 525 kts 148°
2026-05-07 15:18 40.48048 17.65703 37213 ft 523 kts 149°
2026-05-07 15:18 40.45284 17.68901 37380 ft 522 kts 149°
2026-05-07 15:18 40.42547 17.72060 37559 ft 523 kts 148°
2026-05-07 15:18 40.39805 17.75220 37738 ft 524 kts 149°
2026-05-07 15:19 40.37067 17.78374 37927 ft 524 kts 149°
2026-05-07 15:19 40.34335 17.81517 38102 ft 524 kts 148°
2026-05-07 15:19 40.31573 17.84692 38279 ft 525 kts 148°
2026-05-07 15:19 40.28810 17.87863 38462 ft 525 kts 148°
2026-05-07 15:20 40.25130 17.92083 38713 ft 524 kts 148°
2026-05-07 15:20 40.23297 17.94184 38826 ft 524 kts 148°
2026-05-07 15:20 40.20580 17.97293 39012 ft 524 kts 148°
2026-05-07 15:20 40.17804 18.00464 39030 ft 527 kts 148°
2026-05-07 15:21 40.12228 18.06825 39020 ft 529 kts 148°
2026-05-07 15:21 40.06672 18.13154 39014 ft 528 kts 148°
2026-05-07 15:22 40.01127 18.19456 39031 ft 527 kts 148°
2026-05-07 15:22 39.95585 18.25739 39017 ft 527 kts 148°
2026-05-07 15:23 39.90026 18.32027 39014 ft 526 kts 148°
2026-05-07 15:23 39.84510 18.38253 39025 ft 527 kts 147°
2026-05-07 15:24 39.78910 18.44558 39022 ft 528 kts 148°
2026-05-07 15:24 39.73338 18.50818 39016 ft 529 kts 147°
2026-05-07 15:25 39.67770 18.57060 39022 ft 531 kts 147°
2026-05-07 15:25 39.62146 18.63352 39020 ft 532 kts 147°
2026-05-07 15:26 39.56519 18.69633 39023 ft 532 kts 148°
2026-05-07 15:26 39.50890 18.75901 39026 ft 532 kts 147°
2026-05-07 15:27 39.45261 18.82158 39029 ft 533 kts 147°
2026-05-07 15:27 39.39612 18.88422 39031 ft 533 kts 148°
2026-05-07 15:28 39.33937 18.94700 39035 ft 535 kts 147°
2026-05-07 15:28 39.28328 19.01026 39028 ft 541 kts 142°
2026-05-07 15:29 39.23008 19.07959 39032 ft 544 kts 141°
2026-05-07 15:29 39.17650 19.14945 39041 ft 544 kts 141°
2026-05-07 15:30 39.12332 19.21860 39037 ft 544 kts 141°
2026-05-07 15:30 39.06965 19.28823 39038 ft 543 kts 141°
2026-05-07 15:31 39.01643 19.35707 39042 ft 543 kts 141°
2026-05-07 15:31 38.96276 19.42634 39040 ft 544 kts 140°
2026-05-07 15:32 38.90929 19.49518 39039 ft 544 kts 140°
2026-05-07 15:32 38.85587 19.56380 39038 ft 543 kts 140°
2026-05-07 15:33 38.80203 19.63279 39046 ft 544 kts 140°
2026-05-07 15:33 38.74805 19.70182 39042 ft 542 kts 141°
2026-05-07 15:34 38.69465 19.76994 39045 ft 542 kts 141°
2026-05-07 15:34 38.64124 19.83790 39045 ft 542 kts 140°
2026-05-07 15:35 38.58749 19.90613 39049 ft 543 kts 141°
2026-05-07 15:35 38.53347 19.97458 39052 ft 543 kts 140°
2026-05-07 15:36 38.47987 20.04236 39047 ft 543 kts 140°
2026-05-07 15:36 38.42589 20.11043 39053 ft 543 kts 139°
2026-05-07 15:37 38.37199 20.17825 39055 ft 544 kts 139°
2026-05-07 15:37 38.31782 20.24618 39058 ft 544 kts 140°
2026-05-07 15:38 38.26348 20.31429 39069 ft 544 kts 139°
2026-05-07 15:38 38.20924 20.38212 39084 ft 544 kts 140°
2026-05-07 15:39 38.15463 20.45030 39090 ft 546 kts 140°
2026-05-07 15:39 38.10097 20.51682 39089 ft 545 kts 141°
2026-05-07 15:40 38.04488 20.58269 39075 ft 543 kts 142°
2026-05-07 15:40 37.98874 20.64723 39076 ft 544 kts 142°
2026-05-07 15:41 37.93211 20.71231 39081 ft 544 kts 142°
2026-05-07 15:41 37.87603 20.77669 39085 ft 544 kts 142°
2026-05-07 15:42 37.81975 20.84118 39086 ft 543 kts 142°
2026-05-07 15:42 37.76344 20.90562 39088 ft 543 kts 142°
2026-05-07 15:43 37.70686 20.97025 39079 ft 544 kts 141°
2026-05-07 15:43 37.65053 21.03449 39082 ft 544 kts 142°
2026-05-07 15:44 37.59390 21.09895 39079 ft 543 kts 142°
2026-05-07 15:44 37.53788 21.16259 39077 ft 542 kts 142°
2026-05-07 15:45 37.48150 21.22651 39077 ft 542 kts 141°
2026-05-07 15:45 37.42541 21.28998 39077 ft 542 kts 142°
2026-05-07 15:46 37.34084 21.38542 39081 ft 541 kts 141°
2026-05-07 15:47 37.28476 21.44855 39086 ft 541 kts 142°
2026-05-07 15:47 37.22844 21.51183 39086 ft 540 kts 141°
2026-05-07 15:48 37.17231 21.57475 39097 ft 539 kts 141°
2026-05-07 15:48 37.11626 21.63746 39098 ft 539 kts 141°
2026-05-07 15:49 37.06032 21.69992 39112 ft 539 kts 141°
2026-05-07 15:49 37.00385 21.76284 39117 ft 539 kts 142°
2026-05-07 15:50 36.94755 21.82544 39119 ft 539 kts 142°
2026-05-07 15:50 36.89151 21.88763 39117 ft 538 kts 142°
2026-05-07 15:51 36.83546 21.94970 39107 ft 538 kts 142°
2026-05-07 15:51 36.77935 22.01171 39105 ft 537 kts 142°
2026-05-07 15:52 36.72317 22.07366 39101 ft 538 kts 141°
2026-05-07 15:52 36.66676 22.13575 39096 ft 538 kts 142°
2026-05-07 15:53 36.61032 22.19774 39095 ft 538 kts 141°
2026-05-07 15:53 36.55428 22.25919 39091 ft 538 kts 142°
2026-05-07 15:54 36.49777 22.32100 39091 ft 538 kts 141°
2026-05-07 15:54 36.44170 22.38222 39090 ft 537 kts 142°
2026-05-07 15:55 36.38532 22.44365 39085 ft 537 kts 142°
2026-05-07 15:55 36.32882 22.50509 39085 ft 536 kts 141°
2026-05-07 15:56 36.27271 22.56599 39085 ft 536 kts 141°
2026-05-07 15:56 36.21648 22.62688 39090 ft 537 kts 142°
2026-05-07 15:57 36.15969 22.68826 39085 ft 537 kts 142°
2026-05-07 15:57 36.10331 22.74908 39088 ft 538 kts 142°
2026-05-07 15:58 36.04685 22.80985 39091 ft 538 kts 142°
2026-05-07 15:58 35.99001 22.87093 39092 ft 538 kts 142°
2026-05-07 15:59 35.93346 22.93157 39090 ft 539 kts 142°
2026-05-07 15:59 35.87687 22.99212 39093 ft 538 kts 142°
2026-05-07 16:00 35.82016 23.05271 39090 ft 537 kts 142°
2026-05-07 16:00 35.76360 23.11309 39099 ft 537 kts 142°
2026-05-07 16:01 35.70699 23.17342 39098 ft 538 kts 141°
2026-05-07 16:01 35.64989 23.23412 39098 ft 539 kts 141°
2026-05-07 16:02 35.59301 23.29450 39099 ft 540 kts 141°
2026-05-07 16:02 35.53619 23.35468 39101 ft 540 kts 141°
2026-05-07 16:03 35.47903 23.41510 39101 ft 540 kts 141°
2026-05-07 16:03 35.42197 23.47530 39103 ft 540 kts 140°
2026-05-07 16:04 35.36464 23.53568 39105 ft 541 kts 140°
2026-05-07 16:04 35.30721 23.59603 39110 ft 542 kts 141°
2026-05-07 16:05 35.24977 23.65608 39114 ft 542 kts 143°
2026-05-07 16:05 35.18727 23.70644 39119 ft 535 kts 157°
2026-05-07 16:06 35.12089 23.74838 39117 ft 536 kts 156°
2026-05-07 16:06 35.05409 23.79056 39116 ft 537 kts 156°
2026-05-07 16:07 34.98741 23.83264 39110 ft 537 kts 157°
2026-05-07 16:07 34.92121 23.87438 39109 ft 536 kts 157°
2026-05-07 16:08 34.85459 23.91635 39111 ft 535 kts 156°
2026-05-07 16:08 34.78850 23.95793 39113 ft 535 kts 156°
2026-05-07 16:09 34.72210 23.99965 39112 ft 535 kts 156°
2026-05-07 16:09 34.65552 24.04140 39112 ft 536 kts 156°
2026-05-07 16:10 34.58887 24.08314 39112 ft 536 kts 156°
2026-05-07 16:10 34.52280 24.12445 39115 ft 536 kts 157°
2026-05-07 16:11 34.45601 24.16614 39119 ft 536 kts 156°
2026-05-07 16:11 34.38975 24.20742 39113 ft 536 kts 156°
2026-05-07 16:12 34.32310 24.24887 39115 ft 536 kts 156°
2026-05-07 16:12 34.25676 24.29007 39113 ft 536 kts 156°
2026-05-07 16:13 34.19008 24.33140 39110 ft 536 kts 156°
2026-05-07 16:13 34.12349 24.37261 39112 ft 536 kts 156°
2026-05-07 16:14 34.05665 24.41390 39112 ft 537 kts 156°
2026-05-07 16:14 33.99205 24.46006 39115 ft 541 kts 143°
2026-05-07 16:15 33.93495 24.51971 39113 ft 542 kts 138°
2026-05-07 16:15 33.87838 24.58037 39115 ft 541 kts 137°
2026-05-07 16:16 33.82196 24.64080 39111 ft 541 kts 137°
2026-05-07 16:16 33.76556 24.70113 39111 ft 541 kts 139°
2026-05-07 16:17 33.70916 24.76139 39114 ft 541 kts 138°
2026-05-07 16:17 33.65303 24.82126 39111 ft 542 kts 139°
2026-05-07 16:18 33.59608 24.88191 39110 ft 543 kts 139°
2026-05-07 16:18 33.53954 24.94202 39111 ft 542 kts 139°
2026-05-07 16:19 33.48301 25.00202 39115 ft 541 kts 138°
2026-05-07 16:19 33.42668 25.06170 39114 ft 541 kts 139°
2026-05-07 16:20 33.36996 25.12171 39113 ft 542 kts 138°
2026-05-07 16:20 33.31350 25.18133 39118 ft 542 kts 139°
2026-05-07 16:21 33.25665 25.24124 39121 ft 542 kts 139°
2026-05-07 16:21 33.20009 25.30076 39118 ft 542 kts 138°
2026-05-07 16:22 33.14358 25.36011 39122 ft 542 kts 139°
2026-05-07 16:22 33.08675 25.41969 39133 ft 542 kts 139°
2026-05-07 16:23 33.03037 25.47869 39134 ft 540 kts 138°
2026-05-07 16:23 32.97371 25.53789 39135 ft 539 kts 138°
2026-05-07 16:24 32.91713 25.59689 39133 ft 540 kts 139°
2026-05-07 16:24 32.86033 25.65602 39132 ft 539 kts 139°
2026-05-07 16:25 32.80382 25.71475 39134 ft 540 kts 139°
2026-05-07 16:25 32.74717 25.77352 39135 ft 540 kts 139°
2026-05-07 16:26 32.69013 25.83258 39136 ft 541 kts 139°
2026-05-07 16:26 32.63336 25.89127 39135 ft 540 kts 139°
2026-05-07 16:27 32.57629 25.95014 39137 ft 541 kts 139°
2026-05-07 16:27 32.51954 26.00860 39136 ft 542 kts 138°
2026-05-07 16:28 32.46201 26.06776 39137 ft 542 kts 139°
2026-05-07 16:28 32.40463 26.12665 39130 ft 542 kts 139°
2026-05-07 16:29 32.34764 26.18504 39131 ft 542 kts 139°
2026-05-07 16:29 32.29057 26.24341 39138 ft 541 kts 138°
2026-05-07 16:30 32.22784 26.30746 39132 ft 542 kts 138°
2026-05-07 16:30 32.17060 26.36581 39136 ft 542 kts 138°
2026-05-07 16:31 32.11348 26.42391 39129 ft 542 kts 139°
2026-05-07 16:31 32.05589 26.48240 39131 ft 542 kts 138°
2026-05-07 16:32 31.99869 26.54040 39139 ft 543 kts 137°
2026-05-07 16:32 31.94117 26.59863 39132 ft 543 kts 137°
2026-05-07 16:33 31.88336 26.65703 39134 ft 543 kts 139°
2026-05-07 16:33 31.82567 26.71522 39130 ft 543 kts 138°
2026-05-07 16:33 31.79677 26.74434 38754 ft 550 kts 138°
2026-05-07 16:34 31.76761 26.77370 38073 ft 551 kts 139°
2026-05-07 16:34 31.73869 26.80278 37416 ft 548 kts 138°
2026-05-07 16:34 31.70970 26.83191 36775 ft 546 kts 139°
2026-05-07 16:34 31.68045 26.86128 36151 ft 545 kts 139°
2026-05-07 16:35 31.65168 26.89014 35560 ft 546 kts 139°
2026-05-07 16:35 31.62276 26.91912 35117 ft 545 kts 138°
2026-05-07 16:35 31.59391 26.94800 34883 ft 544 kts 138°
2026-05-07 16:35 31.56466 26.97727 34634 ft 546 kts 138°
2026-05-07 16:36 31.53564 27.00628 34356 ft 548 kts 138°
2026-05-07 16:36 31.50657 27.03532 33717 ft 553 kts 138°
2026-05-07 16:36 31.47730 27.06453 33077 ft 552 kts 137°
2026-05-07 16:36 31.44772 27.09403 32338 ft 552 kts 138°
2026-05-07 16:37 31.41864 27.12300 31633 ft 550 kts 138°
2026-05-07 16:37 31.38910 27.15241 30895 ft 548 kts 138°
2026-05-07 16:37 31.36005 27.18130 30168 ft 545 kts 138°
2026-05-07 16:37 31.33159 27.21001 29451 ft 537 kts 134°
2026-05-07 16:38 31.30755 27.24298 28749 ft 522 kts 121°
2026-05-07 16:38 31.28729 27.27791 28032 ft 515 kts 120°
2026-05-07 16:38 31.26715 27.31262 27363 ft 507 kts 120°
2026-05-07 16:38 31.24751 27.34642 26691 ft 500 kts 121°
2026-05-07 16:39 31.22825 27.37955 26035 ft 493 kts 121°
2026-05-07 16:39 31.20887 27.41289 25379 ft 485 kts 121°
2026-05-07 16:39 31.19005 27.44524 24729 ft 478 kts 121°
2026-05-07 16:39 31.17163 27.47688 24112 ft 470 kts 121°
2026-05-07 16:40 31.15314 27.50863 23477 ft 463 kts 122°
2026-05-07 16:40 31.13534 27.53990 22864 ft 454 kts 118°
2026-05-07 16:40 31.12187 27.57286 22253 ft 444 kts 110°
2026-05-07 16:40 31.10976 27.60560 21672 ft 439 kts 111°
2026-05-07 16:41 31.09770 27.63795 21100 ft 436 kts 111°
2026-05-07 16:41 31.08550 27.67075 20519 ft 432 kts 112°
2026-05-07 16:41 31.07363 27.70264 19946 ft 427 kts 112°
2026-05-07 16:41 31.06196 27.73398 19384 ft 421 kts 111°
2026-05-07 16:42 31.05020 27.76551 18828 ft 416 kts 112°
2026-05-07 16:42 31.03879 27.79607 18282 ft 409 kts 112°
2026-05-07 16:42 31.02749 27.82633 17740 ft 401 kts 112°
2026-05-07 16:42 31.01647 27.85578 17210 ft 394 kts 112°
2026-05-07 16:43 31.00565 27.88468 16700 ft 387 kts 112°
2026-05-07 16:43 30.99496 27.91320 16186 ft 381 kts 112°
2026-05-07 16:43 30.98449 27.94112 15688 ft 375 kts 112°
2026-05-07 16:43 30.97400 27.96907 15189 ft 369 kts 112°
2026-05-07 16:44 30.96424 27.99637 14709 ft 362 kts 108°
2026-05-07 16:44 30.95658 28.02392 14219 ft 356 kts 105°
2026-05-07 16:44 30.94917 28.05130 13739 ft 350 kts 105°
2026-05-07 16:44 30.94189 28.07809 13277 ft 344 kts 105°
2026-05-07 16:45 30.93469 28.10462 12825 ft 339 kts 105°
2026-05-07 16:45 30.92763 28.13056 12375 ft 334 kts 105°
2026-05-07 16:45 30.92073 28.15592 11955 ft 330 kts 105°
2026-05-07 16:45 30.91380 28.18134 11502 ft 326 kts 105°
2026-05-07 16:46 30.90697 28.20641 11078 ft 321 kts 105°
2026-05-07 16:46 30.90025 28.23104 10652 ft 317 kts 105°
2026-05-07 16:46 30.89366 28.25520 10244 ft 313 kts 105°
2026-05-07 16:46 30.88701 28.27955 9824 ft 310 kts 105°
2026-05-07 16:47 30.88051 28.30331 9414 ft 305 kts 104°
2026-05-07 16:47 30.87417 28.32649 9017 ft 301 kts 104°
2026-05-07 16:47 30.86779 28.34981 8623 ft 297 kts 104°
2026-05-07 16:47 30.86146 28.37292 8049 ft 300 kts 105°
2026-05-07 16:48 30.85395 28.39529 7499 ft 302 kts 112°
2026-05-07 16:48 30.84303 28.41666 6881 ft 307 kts 120°
2026-05-07 16:48 30.83149 28.43777 6232 ft 308 kts 120°
2026-05-07 16:48 30.82006 28.45864 5685 ft 297 kts 119°
2026-05-07 16:49 30.80939 28.47780 5686 ft 268 kts 119°
2026-05-07 16:49 30.79955 28.49520 5577 ft 248 kts 119°
2026-05-07 16:49 30.79024 28.51153 5293 ft 238 kts 120°
2026-05-07 16:49 30.78122 28.52736 4959 ft 232 kts 119°
2026-05-07 16:50 30.77228 28.54295 4595 ft 227 kts 119°
2026-05-07 16:50 30.76359 28.55800 4219 ft 224 kts 119°
2026-05-07 16:50 30.75491 28.57291 3851 ft 222 kts 120°
2026-05-07 16:50 30.74867 28.58884 3519 ft 214 kts 92°
2026-05-07 16:51 30.75166 28.60525 3176 ft 206 kts 56°
2026-05-07 16:51 30.76098 28.61752 2991 ft 196 kts 41°
2026-05-07 16:51 30.77213 28.62565 2989 ft 184 kts 20°
2026-05-07 16:51 30.78477 28.62816 2985 ft 186 kts
2026-05-07 16:52 30.79789 28.62513 2977 ft 190 kts 341°
2026-05-07 16:52 30.80926 28.61633 2728 ft 202 kts 318°
2026-05-07 16:52 30.81855 28.60396 2511 ft 195 kts 314°
2026-05-07 16:52 30.82721 28.59215 2231 ft 193 kts 315°
2026-05-07 16:53 30.83596 28.58031 2007 ft 191 kts 315°
2026-05-07 16:53 30.84469 28.56853 1981 ft 192 kts 315°
2026-05-07 16:53 30.85365 28.55650 1905 ft 195 kts 315°
2026-05-07 16:53 30.86237 28.54477 1620 ft 190 kts 315°
2026-05-07 16:54 30.87055 28.53370 1438 ft 168 kts 315°
2026-05-07 16:54 30.87754 28.52422 1245 ft 142 kts 316°
2026-05-07 16:54 30.88398 28.51562 1041 ft 137 kts 316°
2026-05-07 16:54 30.89019 28.50730 850 ft 133 kts 315°
2026-05-07 16:55 30.89633 28.49908 682 ft 138 kts 315°
2026-05-07 16:55 30.90248 28.49078 517 ft 133 kts 315°
2026-05-07 16:55 30.90855 28.48278 339 ft 134 kts 315°
2026-05-07 16:55 30.91476 28.47452 176 ft 132 kts 315°
2026-05-07 16:56 30.92027 28.46712 152 ft 102 kts 312°
2026-05-07 16:56 30.92358 28.46268 154 ft 46 kts 310°
2026-05-07 16:56 30.92564 28.46106 154 ft 14 kts 45°
2026-05-07 16:57 30.92631 28.46172 154 ft 13 kts 39°
2026-05-07 16:57 30.92695 28.46234 155 ft 12 kts 41°
2026-05-07 16:57 30.92771 28.46296 155 ft 11 kts 31°
2026-05-07 16:57 30.92836 28.46336 155 ft 10 kts 13°
2026-05-07 16:58 30.92887 28.46387 155 ft 8 kts 79°
2026-05-07 16:58 30.92862 28.46401 154 ft 0 kts 219°